Location: Harwich
(41.7160°N, 69.9939°W)
Time: 14:24:05
(UTC+02:00)

A-11 Canister half - Pass Details

Date: 02 December 2023
Orbit: 1523 x 1684 km, 47.3° (Epoch: 10 September)

Event Time Altitude Azimuth Distance (km) Brightness Sun altitude
Rises 02:25:53 0° 247° (WSW) 4,932 12.2 -47.0°
Reaches altitude 10° 02:29:03 10° 248° (WSW) 3,944 11.5 -47.5°
Enters shadow 02:34:52 41° 253° (WSW) 2,294 10.0 -48.6°
